Humidity-temperature Sensor

Selected Measurement Type: Relative Humidity

 
Relative Humidity [%]     6 entries per hour
Showing data from 10/14/2014 (00:00:00 Z) to 10/13/2014 (00:01:00 Z)
Previous Next [ Day | 3-Days | 7-Days ]
First Last
Prev [ Day | 3-Days | 7-Days ] Next
First Last

Start Time:     :
End Time:     :     
Time (in GMT) :00 :50 :40 :30 :20 :10
Previous Next [ Day | 3-Days | 7-Days ]
First Last
Prev [ Day | 3-Days | 7-Days ] Next
First Last


123 => good data
MM => data is determined as missing
-- => data not received/configured
Back to Top Back to Top
10/14/2014 00:00 to 23:10 75.71 75.37 74.48 74.29 73.91 73.42
10/13/2014 23:00 to 22:10 73.02 73.69 74.95 75.33 76.60 76.34
10/13/2014 22:00 to 21:10 76.03 74.37 73.46 72.59 73.80 74.27
10/13/2014 21:00 to 20:10 74.25 73.63 73.89 72.57 73.67 74.33
10/13/2014 20:00 to 19:10 78.38 74.18 75.62 75.64 76.81 76.07
10/13/2014 19:00 to 18:10 -- -- -- -- -- --
10/13/2014 18:00 to 17:10 77.47 77.17 77.09 75.20 75.22 76.94
10/13/2014 17:00 to 16:10 77.28 76.39 75.26 75.09 74.67 74.05
10/13/2014 16:00 to 15:10 73.08 73.06 73.40 72.85 71.85 72.44
10/13/2014 15:00 to 14:10 70.98 72.80 72.85 73.67 74.63 75.54
10/13/2014 14:00 to 13:10 75.45 75.86 75.35 74.95 75.43 74.80
10/13/2014 13:00 to 12:10 75.18 78.53 78.82 79.40 80.24 79.99
10/13/2014 12:00 to 11:10 78.74 77.57 77.28 77.70 77.15 77.00
10/13/2014 11:00 to 10:10 76.51 77.66 77.66 79.29 79.93 79.76
10/13/2014 10:00 to 9:10 80.20 81.45 79.21 77.04 77.34 78.32
10/13/2014 09:00 to 8:10 78.57 77.64 76.77 77.40 77.30 77.76
10/13/2014 08:00 to 7:10 78.00 77.57 77.38 77.53 77.68 77.68
10/13/2014 07:00 to 6:10 76.90 77.00 75.54 74.90 74.46 76.09
10/13/2014 06:00 to 5:10 77.40 77.04 77.74 77.09 77.30 77.62
10/13/2014 05:00 to 4:10 77.17 79.14 79.08 78.27 77.87 76.26
10/13/2014 04:00 to 3:10 76.66 76.43 75.96 77.47 76.73 77.47
10/13/2014 03:00 to 2:10 78.04 78.27 78.91 79.16 79.31 79.65
10/13/2014 02:00 to 1:10 79.06 79.25 78.85 79.18 78.19 78.48
10/13/2014 01:00 to 0:10 78.68 78.72 79.67 80.63 79.80 79.97